TimeMDT,TemperatureF,Dew PointF,Humidity,Sea Level PressureIn,VisibilityMPH,Wind Direction,Wind SpeedMPH,Gust SpeedMPH,PrecipitationIn,Events,Conditions,WindDirDegrees,DateUTC
12:09 AM,32.0,30.2,93,30.06,1.0,North,32.2,41.4,0.01,,Overcast,350,2013-10-05 06:09:00
12:16 AM,32.0,30.2,93,30.06,0.8,North,31.1,38.0,0.01,,Overcast,350,2013-10-05 06:16:00
12:34 AM,32.0,30.2,93,30.06,1.0,North,29.9,38.0,0.02,,Overcast,350,2013-10-05 06:34:00
12:53 AM,32.0,30.0,92,30.14,1.0,NNW,31.1,39.1,0.03,,Mist,340,2013-10-05 06:53:00
1:27 AM,32.0,30.2,93,30.06,1.0,NNW,29.9,42.6,N/A,,Mist,340,2013-10-05 07:27:00
1:53 AM,32.0,30.0,92,30.14,1.2,NNW,28.8,40.3,0.01,,Overcast,340,2013-10-05 07:53:00
2:46 AM,32.0,30.2,93,30.05,1.0,NNW,27.6,35.7,0.00,,Mist,340,2013-10-05 08:46:00
2:53 AM,32.0,30.0,92,30.06,1.0,NNW,29.9,-,0.00,Snow,Light Snow,330,2013-10-05 08:53:00
3:00 AM,32.0,30.2,93,30.05,0.8,NNW,29.9,-,0.00,,Mist,330,2013-10-05 09:00:00
3:17 AM,32.0,30.2,93,30.06,0.8,NNW,31.1,38.0,0.01,,Mist,330,2013-10-05 09:17:00
3:43 AM,30.2,30.2,100,30.06,0.5,NNW,32.2,42.6,0.02,Fog-Snow,Snow,340,2013-10-05 09:43:00
3:53 AM,30.9,30.0,96,30.14,0.5,NNW,29.9,40.3,0.02,Fog-Snow,Snow,330,2013-10-05 09:53:00
4:53 AM,30.9,28.9,92,30.14,0.5,NNW,32.2,40.3,0.02,Fog-Snow,Snow,330,2013-10-05 10:53:00
5:53 AM,30.0,28.0,92,30.15,0.5,NNW,33.4,43.7,0.01,Fog-Snow,Snow,330,2013-10-05 11:53:00
6:22 AM,30.2,28.4,93,30.06,1.2,NNW,31.1,40.3,0.01,,Mist,330,2013-10-05 12:22:00
6:34 AM,30.2,28.4,93,30.06,0.5,NNW,35.7,43.7,0.01,Fog,Light Freezing Fog,330,2013-10-05 12:34:00
6:42 AM,30.2,28.4,93,30.06,0.5,NNW,34.5,43.7,0.01,Fog-Snow,Snow,330,2013-10-05 12:42:00
6:53 AM,30.0,28.0,92,30.14,0.5,NNW,34.5,46.0,0.01,Fog-Snow,Snow,330,2013-10-05 12:53:00
7:16 AM,30.2,28.4,93,30.05,0.2,NNW,36.8,44.9,0.01,Fog-Snow,Heavy Snow,330,2013-10-05 13:16:00
7:29 AM,30.2,28.4,93,30.05,0.2,NNW,34.5,42.6,0.01,Fog-Snow,Heavy Snow,330,2013-10-05 13:29:00
7:53 AM,28.9,27.0,92,30.14,0.2,NNW,34.5,43.7,0.02,Fog-Snow,Heavy Snow,330,2013-10-05 13:53:00
8:02 AM,28.4,26.6,93,30.05,0.5,NNW,31.1,41.4,0.00,Fog-Snow,Snow,340,2013-10-05 14:02:00
8:53 AM,30.0,28.0,92,30.15,0.5,NNW,32.2,36.8,0.00,Fog-Snow,Snow,330,2013-10-05 14:53:00
9:06 AM,30.2,26.6,86,30.06,0.8,NNW,33.4,39.1,0.00,Snow,Light Snow,330,2013-10-05 15:06:00
9:32 AM,28.4,26.6,93,30.07,0.8,NNW,31.1,38.0,0.00,,Mist,330,2013-10-05 15:32:00
9:53 AM,28.9,27.0,92,30.16,0.5,NNW,31.1,36.8,0.00,Fog-Snow,Snow,330,2013-10-05 15:53:00
10:02 AM,28.4,26.6,93,30.07,0.5,NNW,31.1,38.0,0.00,Fog-Snow,Snow,330,2013-10-05 16:02:00
10:10 AM,28.4,26.6,93,30.07,0.2,NNW,31.1,38.0,0.00,Fog-Snow,Heavy Snow,330,2013-10-05 16:10:00
10:42 AM,28.4,26.6,93,30.05,0.2,NNW,34.5,40.3,0.02,Fog,Light Freezing Fog,340,2013-10-05 16:42:00
10:53 AM,28.9,27.0,92,30.14,0.5,NNW,34.5,39.1,0.02,Fog-Snow,Snow,330,2013-10-05 16:53:00
11:33 AM,30.2,26.6,86,30.07,1.2,NNW,26.5,35.7,0.03,Snow,Light Snow,330,2013-10-05 17:33:00
12:53 PM,34.0,28.0,79,30.14,10.0,NNW,26.5,-,N/A,,Overcast,330,2013-10-05 18:53:00
1:53 PM,36.0,28.0,73,30.10,10.0,NW,28.8,-,0.00,,Overcast,320,2013-10-05 19:53:00
2:53 PM,37.0,28.0,70,30.09,10.0,NW,20.7,-,0.00,,Overcast,320,2013-10-05 20:53:00
3:53 PM,37.9,28.9,70,30.11,10.0,NW,16.1,-,N/A,,Overcast,310,2013-10-05 21:53:00
4:53 PM,39.0,28.9,67,30.11,10.0,NNW,18.4,-,N/A,,Overcast,330,2013-10-05 22:53:00
5:53 PM,39.0,28.9,67,30.13,10.0,North,10.4,-,N/A,,Partly Cloudy,350,2013-10-05 23:53:00
6:53 PM,39.0,27.0,62,30.15,10.0,North,10.4,-,N/A,,Clear,350,2013-10-06 00:53:00
7:53 PM,36.0,27.0,70,30.16,10.0,North,8.1,-,N/A,,Clear,10,2013-10-06 01:53:00
8:53 PM,32.0,26.1,79,30.17,10.0,North,6.9,-,N/A,,Clear,350,2013-10-06 02:53:00
9:53 PM,30.9,24.1,76,30.16,10.0,NW,4.6,-,N/A,,Clear,320,2013-10-06 03:53:00
10:53 PM,27.0,21.9,81,30.16,10.0,NW,5.8,-,N/A,,Clear,320,2013-10-06 04:53:00
11:53 PM,27.0,21.9,81,30.16,10.0,NW,4.6,-,N/A,,Clear,320,2013-10-06 05:53:00